Starlink 2361

operational
NORAD ID: 47901 Int'l Des: 2021-021 Owner: SPXS Country: US Constellation: starlink
LEOCIRCULAR

关于 Starlink 2361

正在加载描述...

实时位置

正在加载3D地球...

即将过境

高度历史

Altitude vs Time

uPlot chart will show altitude changes over time

两行轨道根数

1 47901U 21021AT 26062.63694852 .00001241 00000-0 54017-4 0 9995
2 47901 53.1579 283.5064 0001326 92.3646 267.7507 15.30199446275496
Epoch: Mar 3, 2026 • Age: 24 hours

当前状态

高度 476.5 km
速度 7.63 km/s
星下点 31.30°N, 82.8°W
发射日期 Mar 14, 2021
运行时间 4.9 years
类型 internet

技术详情

分类 Payload
质量 260.00 kg
干质量 248.00 kg
总质量 260.00 kg
长度 0.20 m
直径 2.80 m
跨度 9.00 m
形状 Box + pan
制造商 SPXS
平台类型 Starlink
阶段状态 In Orbit
所有者/国家 SPXS/US

大型星座

Loading constellations...